Hourly Data Report for September 21, 2017

TORONTO CITY
ONTARIO

43°40'00.000" N
79°24'00.000" W
112.50 m
6158355
71508
XTO

Download Data

Hourly Data (September 2017)
Hourly Data Report for September 21, 2017
TIME
LST
Temp Definition
°C
Dew Point Definition
°C
Rel Hum Definition
%
Precip. Amount Definition
mm

Wind Dir Definition
10's deg

Wind Spd Definition
km/h
Visibility Definition
km
Stn Press Definition
kPa
Hmdx Definition


Wind Chill Definition


Weather Definition


00:00 20.7 16.2 75 0.0 LegendMM LegendMM   100.40 25   LegendNANA
01:00 20.7 16.3 76 0.0 LegendMM LegendMM   100.45 26   LegendNANA
02:00 19.0 15.3 79 0.0 LegendMM LegendMM   100.52     LegendNANA
03:00 18.8 15.7 82 0.0 LegendMM LegendMM   100.55     LegendNANA
04:00 18.9 15.8 82 0.0 LegendMM LegendMM   100.58     LegendNANA
05:00 18.8 15.7 82 0.0 LegendMM LegendMM   100.57     LegendNANA
06:00 18.4 15.3 82 0.0 LegendMM LegendMM   100.60     LegendNANA
07:00 19.3 15.5 79 0.0 LegendMM LegendMM   100.62     LegendNANA
08:00 21.5 16.2 72 0.0 LegendMM LegendMM   100.61 26   LegendNANA
09:00 23.3 16.2 65 0.0 LegendMM LegendMM   100.66 28   LegendNANA
10:00 24.5 16.3 60 0.0 LegendMM LegendMM   100.69 29   LegendNANA
11:00 24.2 16.7 63 0.0 LegendMM LegendMM   100.67 29   LegendNANA
12:00 25.2 16.5 59 0.0 LegendMM LegendMM   100.65 30   LegendNANA
13:00 25.3 15.0 53 0.0 LegendMM LegendMM   100.64 29   LegendNANA
14:00 26.3 15.1 50 0.0 LegendMM LegendMM   100.64 30   LegendNANA
15:00 25.8 13.8 47 0.0 LegendMM LegendMM   100.58 29   LegendNANA
16:00 25.5 14.5 51 0.0 LegendMM LegendMM   100.58 29   LegendNANA
17:00 25.0 14.8 53 0.0 LegendMM LegendMM   100.58 29   LegendNANA
18:00 24.1 15.1 57 0.0 LegendMM LegendMM   100.58 28   LegendNANA
19:00 23.4 15.0 59 0.0 LegendMM LegendMM   100.59 27   LegendNANA
20:00 22.9 14.8 60 0.0 LegendMM LegendMM   100.63 27   LegendNANA
21:00 22.1 15.8 67 0.0 LegendMM LegendMM   100.66 27   LegendNANA
22:00 22.0 15.9 68 0.0 LegendMM LegendMM   100.67 27   LegendNANA
23:00 21.7 16.0 70 0.0 LegendMM LegendMM   100.65 26   LegendNANA

Notes on Data Quality.

Legend

  • E = Estimated
  • M = Missing
  • NA = Not Available*
  • [empty] = Indicates an unobserved value
Date modified: